Regional Weather Roundup
Issued by NWS Charleston, SC

Current Version | Previous Version | Text Only | Print | Product List | Glossary Off
Versions: 1 2 3 4 5 6 7 8 9 10 11 12 13 14 15 16 17 18 19 20 21 22 23 24 25 26 27 28 29 30 31 32 33 34 35 36 37 38 39 40 41 42 43 44 45 46 47 48 49 50

749
ASUS42 KCHS 291013
RWRCHS

REGIONAL WEATHER ROUNDUP
NATIONAL WEATHER SERVICE CHARLESTON SC
600 AM EDT SUN MAY 29 2016

NOTE: "FAIR" INDICATES FEW OR NO CLOUDS BELOW 12,000 FEET WITH NO
SIGNIFICANT WEATHER AND/OR OBSTRUCTIONS TO VISIBILITY.

NOT ALL STATIONS ARE QUALITY CONTROLLED. USE DATA WITH CAUTION...
ESPECIALLY DEWPOINT OBSERVATIONS.

SCZ027-030-031-034>040-042>050-291100-
...SOUTHEAST SOUTH CAROLINA...

CITY           SKY/WX    TMP DP  RH WIND       PRES   REMARKS
N CHARLESTON   LGT RAIN  73  70  90 N13       29.91F
WATERFRONT PRK   N/A     73  72  96 N13       29.88F
MOUNT PLEASANT CLOUDY    72  72 100 N6        29.90F FOG
JOHNS ISLAND   HVY RAIN  73  72  94 N8        29.90S
PINOPOLIS        N/A     73  72  94 NE15      29.87S
MONCKS CORNER  LGT RAIN  68  66  94 N8        29.94S
SUMMERVILLE    CLOUDY    72  72 100 N7        29.95R
BEAUFORT MCAS  HVY RAIN  68  67  96 W14       29.93S FOG
BEAUFORT ARPT  DRIZZLE   68  68 100 NW12      29.93S
HILTON HEAD IS NOT AVBL
WALTERBORO     RAIN      72  72 100 N7        29.95S
ALLENDALE      LGT RAIN  68  66  94 NW9G17    29.98S

...SOUTHERN MIDLANDS AND PEE DEE...

CITY           SKY/WX    TMP DP  RH WIND       PRES   REMARKS
GEORGETOWN     CLOUDY    72  72 100 NE8       29.95S
KINGSTREE      DRIZZLE   70  68  94 N5        29.98S
ORANGEBURG     CLOUDY    71  68  90 N10G17    29.99S
BARNWELL       HVY RAIN  70  70 100 N13G23    30.01S
AIKEN          LGT RAIN  63  63 100 NW12G18   30.08F
MANNING        DRIZZLE   70  70 100 NE7       29.97F
COLUMBIA       RAIN      70  67  90 N6        30.02F FOG
SUMTER         CLOUDY    71  69  91 NE12      29.98F
FLORENCE       LGT RAIN  73  70  90 NE10      30.01S
MYRTLE BEACH   MOCLDY    75  66  73 E6        29.99S FOG
N MYRTLE BEACH CLOUDY    74  72  93 E8        29.98R

$$

GAZ063-065-086>088-099>101-113>116-118-119-134>141-150-291100-
...SOUTHEAST GEORGIA...

CITY           SKY/WX    TMP DP  RH WIND       PRES   REMARKS
SAVANNAH ARPT  LGT RAIN  69  66  90 NW13      29.97S
HUNTER AAF     CLOUDY    68  68 100 W9        29.94S
FORT STEWART   CLOUDY    69  65  88 W6        29.98S
STATESBORO     HVY RAIN  67  67 100 NW9       30.01S
SYLVANIA       HVY RAIN  69  67  94 NW13      30.00F
CLAXTON        LGT RAIN  68  67  96 NW5       30.01S

...CSRA...CENTRAL AND FAR SOUTHEAST GEORGIA...

CITY           SKY/WX    TMP DP  RH WIND       PRES   REMARKS
THOMSON        CLOUDY    69  69 100 NW3       30.13R
AUGUSTA-BUSH   RAIN      66  65  96 N15       30.04S FOG
AUGUSTA-DANIEL RAIN      67  63  87 N10       30.07R FOG
SWAINSBORO     LGT RAIN  66  64  94 NW6       30.07R
VIDALIA        MOCLDY    68  63  83 N8        30.05R
EASTMAN        FAIR      65  65 100 CALM      30.10R
HAZLEHURST     FAIR      67  66  94 CALM      30.04R
ALMA           CLEAR     65  63  93 W5        30.05R
WAYCROSS       PTCLDY    65  64  97 W5        30.05R
JESUP          FAIR      61  59  94 E3        30.03S
BAXLEY         FAIR      66  64  94 CALM      30.04R
BRUNSWICK      CLEAR     68  64  88 W7        30.03R
SAINT SIMONS   CLEAR     68  65  90 W6        30.01R

$$

SCZ027-028-034-036>038-045-046-048>050-GAZ119-141-291100-
...LAKE AND SUPPLEMENTAL COASTAL OBSERVATIONS...

STATION/POSITION TIME  TEMP    WIND        PRES    WAVE   SWELL
                       AIR SEA DIR/SP/G            HT/PER HT/PER/DIR
                 (UTC) (F)     (DEG/KT/KT) (MB)    (FT/S) (FT/S/D)
WINYAH BAY       NOT AVBL
LAKE MURRAY      0900   68     330/  3/  7 1016.9S
ACE BASIN NERRS  NOT AVBL
FORT PULASKI     0900   69 76  300/ 13/ 15 1014.2F
SAPELO ISLAND    0900   69     290/  9     1015.0S

$$

ANZ835-935-AMZ111-154-330-350-352-354-370-450-454-472-291100-
...C-MAN AND BUOY OBSERVATIONS...

STATION/POSITION TIME  TEMP    WIND        PRES    WAVE   SWELL
                       AIR SEA DIR/SP/G            HT/PER HT/PER/DIR
                 (UTC) (F)     (DEG/KT/KT) (MB)    (FT/S) (FT/S/D)
BUOY 41004       0950   78 78  140/ 27/ 33 1009.4F   9/ 7   2/13
BUOY 41008       0950   72 75  290/ 16/ 19 1014.7R   4/ 6   2/ 50/ 9
FOLLY BEACH CMAN 1000   72     350/ 10/ 13 1012.0F
CAPERS NEARSHORE 0908   75 75   40/ 16/ 21 1012.1F
FRIPP NEARSHORE  0908   70 75  300/ 19/ 27 1012.3S


STATION/POSITION TIME  TEMP    WIND        PRES    WAVE   SWELL
                       AIR SEA DIR/SP/G            HT/PER HT/PER/DIR
                 (UTC) (F)     (DEG/KT/KT) (MB)    (FT/S) (FT/S/D)
5E ST. MARYS GA  1001      78                N/A     3/ 8
FRYING PAN BUOY  0900   78 78  140/ 16/ 21 1015.0S
BUOY 41025       0950   78 79  140/ 16/ 19 1018.7R   5/ 8   3/110/ 8
CAPE LOOKOUT NC  0900   73     110/ 15/ 17 1017.4S
BUOY 41002       0950   75 75  120/ 14/ 16 1018.5R   4/ 7   3/ 90/ 7
BUOY 41010       0920   78 79  210/ 10/ 12 1016.2R
ST AUGUSTINE FL  1000   69 78  260/  5/  6 1017.9R


$$




USA.gov is the U.S. government's official web portal to all federal, state and local government web resources and services.